ninjamarketing.it alexa rank chart, ninjamarketing.it alexa rank daily changes

ninjamarketing.it alexa rank chart, ninjamarketing.it alexa rank daily changes

ninjamarketing.it
Actual rank:
46 352

RANK HISTORY

Date Rank Diff
2017/08/23 46 352 +1 481
2017/08/22 44 871 +1 249
2017/08/21 43 622 +1 039
2017/08/20 42 583 +1 706
2017/08/19 40 877 +96
2017/08/18 40 781 +52
2017/08/17 40 729 +219
2017/08/16 40 510 +772
2017/08/15 39 738 +716
2017/08/14 39 022 +457
2017/08/13 38 565 +902
2017/08/12 37 663 +749
2017/08/11 36 914 -212
2017/08/10 37 126 +168
2017/08/09 36 958 +579
2017/08/08 36 379 +517
2017/08/07 35 862 +861
2017/08/06 35 001 -136
2017/08/05 35 137 -64
2017/08/04 35 201 -374
2017/08/03 35 575 -736
2017/08/02 36 311 -178
2017/08/01 36 489 +593
2017/07/31 35 896 +639
2017/07/30 35 257 -359
2017/07/29 35 616 +229
2017/07/28 35 387 +197
2017/07/27 35 190 -1 473
2017/07/26 36 663 -509
2017/07/25 37 172 +846
2017/07/24 36 326 +938
2017/07/23 35 388 -239
2017/07/22 35 627 -20
2017/07/21 35 647 +107
2017/07/20 35 540 -781
2017/07/19 36 321 -413
2017/07/18 36 734 +307
2017/07/17 36 427 +904
2017/07/16 35 523 +267
2017/07/15 35 256 -60
2017/07/14 35 316 -105
2017/07/13 35 421 -887
2017/07/12 36 308 -898
2017/07/11 37 206 +822
2017/07/10 36 384 +764
2017/07/09 35 620 -335
2017/07/08 35 955 +3
2017/07/07 35 952 -192
2017/07/06 36 144 -292
2017/07/05 36 436 -928
2017/07/04 37 364 -334
2017/07/03 37 698 +554
2017/07/02 37 144 +69
2017/07/01 37 075 +76
2017/06/30 36 999 -486
2017/06/29 37 485 -814
2017/06/28 38 299 -325
2017/06/27 38 624 +608
2017/06/26 38 016 +794
2017/06/25 37 222 -302
2017/06/24 37 524

WIDGET FOR YOUR SITE

DOMAINS WITH THE NEAREST RANK

Domain Rank
charmingcharlie.com 46 347
xunleige.com 46 348
yunaq.com 46 349
9966.org 46 350
humankinetics.com 46 351
ninjamarketing.it 46 352
courrier.jp 46 353
passport.gov.in 46 354
gostream.fun 46 355
camdeni.com 46 356
pearsoned.co.uk 46 357

DOMAINS WITH THE NEAREST RANK BY TLD .it

Domain Rank
calcionapoli1926.it 45 992
unimib.it 46 073
voyage-prive.it 46 197
lacucinaitaliana.it 46 256
workout-italia.it 46 344
ninjamarketing.it 46 352
pornopizza.it 46 417
simplebooking.it 46 445
unibet.it 46 566
netflixlovers.it 46 578
inran.it 46 617